Location: Stilling
(56.0622°N, 9.9882°E)
Time: 13:14:16
(UTC+00:00)

Cosmos 2369 Rocket - Pass Details

Date: 13 July 2020
Orbit: 830 x 851 km, 71.0° (Epoch: 06 August)

Event Time Altitude Azimuth Distance (km) Brightness Sun altitude
Rises 21:32:30 0° 325° (NW) 3,386 7.5 -8.7°
Reaches altitude 10° 21:34:56 10° 325° (NW) 2,450 6.2 -8.8°
Maximum altitude 21:40:34 89° 237° (WSW) 841 2.2 -9.1°
Enters shadow 21:45:53 12° 148° (SSE) 2,325 3.8 -9.4°
